Weather History for Tarboro, NC

Change the Weather History Date:

Saturday, March 23, 2013

  Actual Average Record
Temperature  
Mean Temperature 42 °F -  
Max Temperature 77 °F 64 °F 84 °F (1952)
Min Temperature 29 °F 36 °F 23 °F (1986)
Degree Days  
Heating Degree Days 23    
Moisture  
Dew Point 27 °F    
Average Humidity 63    
Maximum Humidity 92    
Minimum Humidity 25    
Precipitation  
Precipitation 0.00 in - - ()
Sea Level Pressure  
Sea Level Pressure 30.00 in    
Wind  
Wind Speed 1 mph (WNW)    
Max Wind Speed 6 mph    
Max Gust Speed -    
Visibility 10 miles    
Events      
Averages and records for this station are not official NWS values.
T = Trace of Precipitation, MM = Missing Value Source: NWS Daily Summary

Daily Weather History Graph

Daily Weather History Graph

Search for Another Location

Airport:

Trip Planner

Search our weather history database for the weather conditions in past years. The results will help you decide how hot, cold, wet, or windy it might be!

Date:

Astronomy

Mar. 23, 2013 Rise Set
Actual Time 7:09 AM EDT 7:24 PM EDT
Civil Twilight 6:43 AM EDT 7:50 PM EDT
Nautical Twilight 6:13 AM EDT 8:20 PM EDT
Astronomical Twilight 5:43 AM EDT 8:50 PM EDT
Moon 3:55 PM EDT (3/23) 4:37 AM EDT (3/23)
Length of Visible Light 13h 06m
Length of Day
12h 15m
Waxing Gibbous, 85% of the Moon is Illuminated
Mar 23
Waxing Gibbous
Mar 27
Full
Apr 3
Last Quarter
Apr 10
New
Apr 18
First Quarter

Hourly Weather History & Observations

Time (EDT) Temp. Windchill Dew Point Humidity Pressure Visibility Wind Dir Wind Speed Gust Speed Precip Events Conditions
12:15 AM 30.9 °F - 28.2 °F 90% 30.02 in 10.0 mi Calm Calm - N/A   Clear
12:35 AM 30.6 °F - 27.5 °F 88% 30.02 in 10.0 mi Calm Calm - N/A   Clear
12:55 AM 30.7 °F - 27.9 °F 89% 30.02 in 10.0 mi Calm Calm - N/A   Clear
1:15 AM 30.6 °F - 28.0 °F 90% 30.02 in 10.0 mi Calm Calm - N/A   Clear
1:35 AM 29.8 °F - 27.7 °F 92% 30.02 in 10.0 mi Calm Calm - N/A   Clear
1:55 AM 29.8 °F - 27.5 °F 91% 30.02 in 10.0 mi Calm Calm - N/A   Clear
2:15 AM 30.0 °F - 27.9 °F 92% 30.02 in 10.0 mi Calm Calm - N/A   Mostly Cloudy
2:35 AM 30.6 °F - 28.0 °F 90% 30.02 in 10.0 mi Calm Calm - N/A   Scattered Clouds
2:55 AM 31.5 °F - 28.2 °F 88% 30.01 in 10.0 mi Calm Calm - N/A   Scattered Clouds
3:15 AM 31.8 °F - 28.9 °F 89% 30.00 in 10.0 mi Calm Calm - N/A   Mostly Cloudy
3:35 AM 32.0 °F - 29.5 °F 90% 30.00 in 10.0 mi Calm Calm - N/A   Overcast
3:55 AM 32.0 °F - 29.8 °F 92% 30.00 in 10.0 mi Calm Calm - N/A   Overcast
4:15 AM 32.0 °F 28.7 °F 28.9 °F 88% 30.01 in 10.0 mi North 3.5 mph - N/A   Overcast
4:35 AM 32.0 °F - 28.0 °F 85% 30.00 in 10.0 mi Calm Calm - N/A   Overcast
4:55 AM 32.2 °F 26.7 °F 28.8 °F 87% 30.00 in 10.0 mi South 5.8 mph - N/A   Overcast
5:15 AM 33.1 °F - 29.1 °F 85% 30.00 in 10.0 mi Calm Calm - N/A   Overcast
5:35 AM 33.8 °F - 29.7 °F 85% 30.00 in 10.0 mi Calm Calm - N/A   Overcast
5:55 AM 34.0 °F - 30.9 °F 89% 30.01 in 10.0 mi Calm Calm - N/A   Overcast
6:15 AM 34.5 °F - 31.3 °F 88% 30.02 in 10.0 mi Calm Calm - N/A   Overcast
6:35 AM 34.9 °F - 31.6 °F 88% 30.01 in 10.0 mi Calm Calm - N/A   Overcast
6:55 AM 34.9 °F - 30.7 °F 85% 30.02 in 10.0 mi Calm Calm - N/A   Overcast
7:35 AM 35.6 °F - 32.0 °F 87% 30.02 in 10.0 mi Calm Calm - N/A   Overcast
7:55 AM 36.3 °F - 32.4 °F 86% 30.04 in 10.0 mi Calm Calm - N/A   Overcast
8:15 AM 37.8 °F - 31.5 °F 78% 30.03 in 10.0 mi Calm Calm - N/A   Overcast
8:35 AM 39.2 °F - 30.6 °F 71% 30.04 in 10.0 mi Calm Calm - N/A   Overcast
8:55 AM 39.7 °F - 28.6 °F 64% 30.04 in 10.0 mi Calm Calm - N/A   Overcast
9:15 AM 40.3 °F 38.2 °F 25.7 °F 56% 30.05 in 10.0 mi NNW 3.5 mph - N/A   Overcast
9:35 AM 41.0 °F - 25.5 °F 54% 30.05 in 10.0 mi Calm Calm - N/A   Overcast
9:55 AM 41.7 °F - 25.0 °F 52% 30.05 in 10.0 mi Calm Calm - N/A   Overcast
10:15 AM 42.4 °F - 24.8 °F 50% 30.05 in 10.0 mi Calm Calm - N/A   Overcast
10:35 AM 44.1 °F 41.5 °F 25.5 °F 48% 30.05 in 10.0 mi NNW 4.6 mph - N/A   Overcast
10:55 AM 45.7 °F 44.4 °F 26.4 °F 47% 30.05 in 10.0 mi North 3.5 mph - N/A   Overcast
11:15 AM 47.1 °F - 25.5 °F 43% 30.06 in 10.0 mi North 4.6 mph - N/A   Overcast
11:35 AM 46.4 °F 43.5 °F 24.4 °F 42% 30.05 in 10.0 mi North 5.8 mph - N/A   Overcast
11:55 AM 46.8 °F - 24.4 °F 42% 30.05 in 10.0 mi North 3.5 mph - N/A   Overcast
12:15 PM 46.8 °F - 23.7 °F 40% 30.05 in 10.0 mi NNW 3.5 mph - N/A   Overcast
12:35 PM 47.1 °F - 23.5 °F 40% 30.05 in 10.0 mi Calm Calm - N/A   Mostly Cloudy
12:55 PM 47.8 °F - 23.9 °F 39% 30.04 in 10.0 mi Calm Calm - N/A   Scattered Clouds
1:15 PM 48.6 °F - 23.7 °F 38% 30.03 in 10.0 mi Calm Calm - N/A   Scattered Clouds
1:35 PM 49.6 °F - 23.2 °F 35% 30.02 in 10.0 mi Calm Calm - N/A   Mostly Cloudy
1:55 PM 50.7 °F - 21.2 °F 31% 30.01 in 10.0 mi Calm Calm - N/A   Overcast
2:15 PM 51.3 °F - 21.6 °F 31% 30.00 in 10.0 mi Calm Calm - N/A   Overcast
2:35 PM 51.8 °F - 20.8 °F 30% 30.00 in 10.0 mi West 3.5 mph - N/A   Overcast
2:55 PM 52.7 °F - 19.6 °F 27% 29.99 in 10.0 mi West 4.6 mph - N/A   Overcast
3:15 PM 53.4 °F - 19.6 °F 27% 29.98 in 10.0 mi West 5.8 mph - N/A   Overcast
3:35 PM 54.7 °F - 19.4 °F 25% 29.97 in 10.0 mi WNW 5.8 mph - N/A   Overcast
3:55 PM 55.0 °F - 19.9 °F 25% 29.97 in 10.0 mi SW 3.5 mph - N/A   Overcast
4:15 PM 54.9 °F - 20.8 °F 27% 29.95 in 10.0 mi WSW 5.8 mph - N/A   Mostly Cloudy
4:35 PM 55.0 °F - 20.7 °F 26% 29.95 in 10.0 mi SW 5.8 mph - N/A   Mostly Cloudy
4:55 PM 54.9 °F - 21.0 °F 27% 29.95 in 10.0 mi WSW 5.8 mph - N/A   Mostly Cloudy
5:15 PM 54.5 °F - 21.9 °F 28% 29.95 in 10.0 mi SW 4.6 mph - N/A   Overcast
5:35 PM 54.3 °F - 22.1 °F 29% 29.95 in 10.0 mi West 5.8 mph - N/A   Overcast
5:55 PM 54.1 °F - 22.6 °F 29% 29.93 in 10.0 mi WSW 3.5 mph - N/A   Overcast
6:15 PM 53.6 °F - 22.8 °F 30% 29.93 in 10.0 mi WSW 4.6 mph - N/A   Scattered Clouds
6:35 PM 52.7 °F - 23.5 °F 32% 29.93 in 10.0 mi West 3.5 mph - N/A   Clear
6:55 PM 51.8 °F - 23.2 °F 33% 29.92 in 10.0 mi Calm Calm - N/A   Clear
7:15 PM 51.6 °F - 23.2 °F 33% 29.92 in 10.0 mi Calm Calm - N/A   Clear
8:15 PM 43.7 °F - 31.6 °F 63% 29.94 in 10.0 mi Calm Calm - N/A   Clear
8:35 PM 41.4 °F - 32.9 °F 72% 29.95 in 10.0 mi Calm Calm - N/A   Clear
8:55 PM 40.6 °F - 33.1 °F 74% 29.96 in 10.0 mi Calm Calm - N/A   Clear
9:15 PM 39.0 °F - 34.0 °F 82% 29.97 in 10.0 mi Calm Calm - N/A   Clear
9:35 PM 38.1 °F - 33.6 °F 84% 29.97 in 10.0 mi Calm Calm - N/A   Clear
9:55 PM 37.0 °F - 33.4 °F 87% 29.99 in 10.0 mi Calm Calm - N/A   Clear
10:15 PM 36.9 °F - 33.3 °F 87% 29.99 in 10.0 mi Calm Calm - N/A   Clear
10:35 PM 38.1 °F - 32.2 °F 79% 29.99 in 10.0 mi Calm Calm - N/A   Clear
10:55 PM 36.9 °F - 32.4 °F 84% 29.99 in 10.0 mi Calm Calm - N/A   Clear
11:15 PM 35.6 °F 32.8 °F 32.7 °F 89% 29.98 in 10.0 mi East 3.5 mph - N/A   Clear
11:35 PM 35.2 °F - 32.0 °F 88% 29.97 in 10.0 mi Calm Calm - N/A   Clear
11:55 PM 34.7 °F - 32.2 °F 91% 29.95 in 10.0 mi Calm Calm - N/A   Clear